Mobile Downtown, AL

4:34 AM CDT on July 27, 2017 (GMT -0500)
Mobile Downtown

Weather History for KBFM - June, 2014

Change the Weather History Date:

Monday, June 9, 2014

  Actual Average Record
Temperature  
Mean Temperature 82 °F -  
Max Temperature 89 °F 85 °F 97 °F (2007)
Min Temperature 77 °F 70 °F 66 °F (2017)
Cooling Degree Days 18    
Growing Degree Days 32 (Base 50)    
Moisture  
Dew Point 74 °F    
Average Humidity 78    
Maximum Humidity 88    
Minimum Humidity 67    
Precipitation  
Precipitation 0.00 in - - ()
Sea Level Pressure  
Sea Level Pressure 29.92 in    
Wind  
Wind Speed 7 mph (South)    
Max Wind Speed 15 mph    
Max Gust Speed 23 mph    
Visibility 10 miles    
Events      
Averages and records for this station are not official NWS values.
T = Trace of Precipitation, MM = Missing Value Source: NWS Daily Summary

Daily Weather History Graph

Daily Weather History Graph

Search for Another Location

Airport or City:

Trip Planner

Search our weather history database for the weather conditions in past years. The results will help you decide how hot, cold, wet, or windy it might be!

Date:

Astronomy

Jun. 09, 2014 Rise Set
Actual Time 5:49 AM CDT 7:54 PM CDT
Civil Twilight 5:21 AM CDT 8:21 PM CDT
Nautical Twilight 4:48 AM CDT 8:55 PM CDT
Astronomical Twilight 4:12 AM CDT 9:31 PM CDT
Moon 4:27 PM CDT (6/9) 3:01 AM CDT (6/9)
Length of Visible Light 15h 00m
Length of Day
14h 05m
Waxing Gibbous, 85% of the Moon is Illuminated
Jun 9
Waxing Gibbous
Jun 12
Full
Jun 19
Last Quarter
Jun 27
New
Jul 5
First Quarter

Hourly Weather History & Observations

Time (CDT) Temp. Heat Index Dew Point Humidity Pressure Visibility Wind Dir Wind Speed Gust Speed Precip Events Conditions
12:53 AM 80.1 °F 85.1 °F 75.0 °F 85% 29.93 in 10.0 mi SSW 8.1 mph - N/A   Partly Cloudy
1:53 AM 79.0 °F - 75.0 °F 88% 29.93 in 10.0 mi Variable 3.5 mph - N/A   Clear
2:53 AM 79.0 °F - 73.9 °F 84% 29.93 in 10.0 mi SW 4.6 mph - N/A   Clear
3:53 AM 79.0 °F - 73.0 °F 82% 29.92 in 10.0 mi Variable 5.8 mph - N/A   Clear
4:53 AM 77.0 °F - 73.0 °F 88% 29.91 in 10.0 mi WSW 4.6 mph - N/A   Clear
5:53 AM 77.0 °F - 73.0 °F 88% 29.93 in 10.0 mi Calm Calm - N/A   Clear
6:53 AM 78.1 °F - 73.9 °F 87% 29.93 in 10.0 mi Calm Calm - N/A   Scattered Clouds
7:53 AM 81.0 °F 86.7 °F 75.0 °F 82% 29.94 in 10.0 mi West 3.5 mph - N/A   Scattered Clouds
8:53 AM 84.9 °F 94.1 °F 75.9 °F 74% 29.96 in 10.0 mi Variable 3.5 mph - N/A   Mostly Cloudy
10:53 AM 84.0 °F 91.2 °F 73.9 °F 72% 29.96 in 10.0 mi NE 6.9 mph - N/A   Mostly Cloudy
11:53 AM 84.9 °F 92.1 °F 73.9 °F 69% 29.96 in 10.0 mi East 8.1 mph - N/A   Mostly Cloudy
1:53 PM 88.0 °F 98.5 °F 75.9 °F 67% 29.91 in 10.0 mi SSE 13.8 mph 21.9 mph N/A   Scattered Clouds
2:53 PM 86.0 °F 96.0 °F 75.9 °F 72% 29.90 in 10.0 mi SSE 10.4 mph 23.0 mph N/A   Scattered Clouds
3:53 PM 84.9 °F 93.3 °F 75.0 °F 72% 29.89 in 10.0 mi SSE 11.5 mph 23.0 mph N/A   Mostly Cloudy
4:53 PM 84.9 °F 92.1 °F 73.9 °F 69% 29.89 in 10.0 mi South 11.5 mph - N/A   Mostly Cloudy
5:53 PM 84.0 °F 91.2 °F 73.9 °F 72% 29.89 in 10.0 mi South 15.0 mph 18.4 mph N/A   Mostly Cloudy
6:53 PM 82.9 °F 89.4 °F 73.9 °F 74% 29.91 in 10.0 mi South 8.1 mph - N/A   Scattered Clouds
7:53 PM 81.0 °F 86.2 °F 73.9 °F 79% 29.91 in 10.0 mi Variable 6.9 mph - N/A   Scattered Clouds
8:53 PM 81.0 °F 86.2 °F 73.9 °F 79% 29.92 in 10.0 mi South 6.9 mph - N/A   Scattered Clouds
9:53 PM 81.0 °F 86.2 °F 73.9 °F 79% 29.94 in 10.0 mi South 9.2 mph - N/A   Partly Cloudy
10:53 PM 81.0 °F 86.2 °F 73.9 °F 79% 29.94 in 10.0 mi South 9.2 mph - N/A   Clear
11:53 PM 81.0 °F 86.2 °F 73.9 °F 79% 29.93 in 10.0 mi South 8.1 mph - N/A   Partly Cloudy